Flag for Norway Weather past 2 weeks in Fetsund, Norway

Now
76 °F

Mild.


Feels Like: 78 °F
Forecast: 60 / 77 °F
Wind: 3 mph from Southwest

Location: Oslo-Blindern

Current Time: Jul 28, 2014 at 8:03:28 PM

Latest Report: Jul 28, 2014 at 7:00 PM


Visibility: N/A

Pressure: 29.85 "Hg

Humidity: 63%

Dew point: 62 °F

Location of FetsundLocation

Historic Weather in Fetsund — Graph

°F

Fetsund temperature yesterday

Maximum temperature yesterday: 75 °F (at 12:00 PM)
Minimum temperature yesterday: 64 °F (at 5:00 AM)
Average temperature yesterday: 69 °F

Past Weeks' High & Low Weather Summary

 TemperatureHumidityPressure
High90 °F (Jul 24, 2:00 PM)97% (Jul 16, 2:00 AM)30.31 "Hg (Jul 16, 2:00 AM)
Low52 °F (Jul 18, 5:00 AM)23% (Jul 23, 6:00 PM)29.66 "Hg (Jul 13, 10:00 PM)
Average71 °F65%30.02 "Hg
* Reported Jul 13 6:00 PM — Jul 28 6:00 PM, Fetsund, Weather by CustomWeather, © 2014

Note: Actual official high and low records may vary slightly from our data, if they occured in-between our weather recording intervals... More about our weather records

Advertising

Fetsund weather history for previous 24 hours

 ConditionsComfort  
Time TempWeatherWind HumidityBarometerVisibility
6:00 PM
Jul 28
78 °FWarm.5 mph57%29.85 "HgN/A
5:00 PM80 °FScattered clouds.3 mph52%29.86 "Hg43 mi
4:00 PM82 °FWarm.2 mph48%29.87 "HgN/A
3:00 PM80 °FWarm.2 mph54%29.88 "HgN/A
2:00 PM79 °FScattered clouds.3 mph55%29.90 "Hg34 mi
1:00 PM78 °FWarm.3 mph60%29.91 "HgN/A
12:00 PM75 °FMild.3 mph64%29.92 "HgN/A
11:00 AM75 °FScattered clouds.2 mph68%29.93 "Hg34 mi
10:00 AM72 °FMild.2 mph70%29.93 "HgN/A
9:00 AM68 °FMild.1 mph80%29.94 "HgN/A
8:00 AM65 °FLow clouds.No wind85%29.94 "Hg34 mi
7:00 AM63 °FMild.1 mph87%29.94 "HgN/A
6:00 AM62 °FCool.1 mph90%29.93 "HgN/A
5:00 AM61 °FOvercast.3 mph91%29.94 "Hg19 mi
4:00 AM61 °FCool.3 mph91%29.94 "HgN/A
3:00 AM60 °FCool.2 mph91%29.93 "HgN/A
2:00 AM62 °FPassing clouds.3 mph89%29.94 "Hg34 mi
1:00 AM62 °FCool.2 mph89%29.95 "HgN/A
12:00 AM63 °FMild.2 mph88%29.94 "HgN/A
11:00 PM
Jul 27
65 °FPassing clouds.1 mph83%29.93 "Hg34 mi
10:00 PM67 °FMild.1 mph79%29.93 "HgN/A
9:00 PM68 °FMild.1 mph77%29.93 "HgN/A
8:00 PM71 °FThunderstorms. Overcast.2 mph69%29.91 "Hg34 mi
Weather by CustomWeather, © 2014

See weather overviewHow to use our weather pages